Flag for Canada Weather past 2 weeks in Dawson Creek, British Columbia, Canada

Now
41 °F

Clear.


Feels Like: 35 °F
Forecast: 37 / 46 °F
Wind: 10 mph from West

Location: Dawson Creek Airport

Current Time: Mar 30, 2015 at 3:02:19 AM

Latest Report: Mar 30, 2015 at 2:00 AM


Visibility: 9 mi

Pressure: 29.91 "Hg

Humidity: 57%

Dew point: 27 °F

Location of Dawson CreekLocation

Historic Weather in Dawson Creek — Graph

°F

Dawson Creek temperature yesterday

Maximum temperature yesterday: 54 °F (at 3:00 PM)
Minimum temperature yesterday: 36 °F (at 5:00 AM)
Average temperature yesterday: 45 °F

Past Weeks' High & Low Weather Summary

 TemperatureHumidityPressure
High57 °F (Mar 26, 3:00 PM)100% (Mar 15, 6:00 AM)30.43 "Hg (Mar 15, 6:00 AM)
Low10 °F (Mar 23, 6:00 AM)28% (Mar 28, 4:00 PM)29.68 "Hg (Mar 28, 3:00 AM)
Average33 °F79%30.03 "Hg
* Reported Mar 15 2:00 AM — Mar 30 2:00 AM, Dawson Creek, Weather by CustomWeather, © 2015

Note: Actual official high and low records may vary slightly from our data, if they occured in-between our weather recording intervals... More about our weather records

Advertising

Dawson Creek weather history for previous 24 hours

 ConditionsComfort  
Time TempWeatherWind HumidityBarometerVisibility
2:00 AM
Mon, Mar 30
41 °FClear.10 mph57%29.91 "Hg9 mi
1:00 AM41 °FClear.15 mph57%29.89 "Hg9 mi
12:00 AM41 °FClear.16 mph61%29.89 "Hg9 mi
11:00 PM
Sun, Mar 29
41 °FPassing clouds.10 mph61%29.90 "Hg9 mi
10:00 PM43 °FClear.15 mph57%29.88 "Hg9 mi
9:00 PM45 °FPassing clouds.21 mph57%29.87 "Hg9 mi
8:00 PM45 °FPassing clouds.16 mph53%29.87 "Hg9 mi
7:00 PM46 °FSunny.12 mph50%29.86 "Hg9 mi
6:00 PM50 °FPassing clouds.20 mph43%29.83 "Hg9 mi
5:00 PM54 °FPartly sunny.16 mph41%29.81 "Hg9 mi
4:00 PM52 °FPartly sunny.21 mph41%29.80 "Hg9 mi
3:00 PM54 °FBroken clouds.25 mph41%29.78 "Hg9 mi
2:56 PM52 °FBroken clouds.23 mph44%29.78 "Hg9 mi
2:00 PM50 °FMostly cloudy.16 mph50%29.80 "Hg9 mi
1:00 PM50 °FMostly cloudy.8 mph50%29.79 "Hg9 mi
12:00 PM48 °FMostly cloudy.9 mph58%29.79 "Hg9 mi
11:00 AM48 °FOvercast.2 mph58%29.79 "Hg9 mi
10:00 AM46 °FOvercast.No wind62%29.79 "Hg9 mi
9:00 AM46 °FOvercast.14 mph62%29.79 "Hg9 mi
8:00 AM39 °FScattered clouds.2 mph75%29.80 "Hg9 mi
7:00 AM39 °FMostly cloudy.6 mph75%29.80 "Hg9 mi
6:00 AM36 °FPassing clouds.10 mph87%29.80 "Hg9 mi
5:00 AM36 °FPassing clouds.3 mph87%29.81 "Hg9 mi
4:00 AM39 °FPassing clouds.7 mph75%29.81 "Hg9 mi
3:00 AM39 °FPassing clouds.6 mph75%29.83 "Hg9 mi
Weather by CustomWeather, © 2015

See weather overviewHow to use our weather pages